Fredericksburg, VA

7:37 PM EST on January 21, 2017 (GMT -0500)
Stafford

Weather History for KRMN - September, 2013

Change the Weather History Date:

Wednesday, September 25, 2013

  Actual Average (KNYG) Record (KNYG)
Temperature  
Mean Temperature 60 °F -  
Max Temperature 75 °F 72 °F 88 °F (2010)
Min Temperature 44 °F 55 °F 46 °F (2001)
Degree Days  
Heating Degree Days 6    
Growing Degree Days 10 (Base 50)    
Moisture  
Dew Point 53 °F    
Average Humidity 85    
Maximum Humidity 100    
Minimum Humidity 41    
Precipitation  
Precipitation 0.00 in - - ()
Sea Level Pressure  
Sea Level Pressure 29.98 in    
Wind  
Wind Speed 2 mph (North)    
Max Wind Speed 7 mph    
Max Gust Speed -    
Visibility 8 miles    
Events Fog    
Averages and records for this station are not official NWS values.
T = Trace of Precipitation, MM = Missing Value Source: NWS Daily Summary

Daily Weather History Graph

Daily Weather History Graph

Search for Another Location

Airport or City:

Trip Planner

Search our weather history database for the weather conditions in past years. The results will help you decide how hot, cold, wet, or windy it might be!

Date:

Astronomy

Sep. 25, 2013 Rise Set
Actual Time 7:00 AM EDT 7:01 PM EDT
Civil Twilight 6:34 AM EDT 7:28 PM EDT
Nautical Twilight 6:03 AM EDT 7:58 PM EDT
Astronomical Twilight 5:31 AM EDT 8:29 PM EDT
Moon 11:10 PM EDT (9/25) 1:00 PM EDT (9/25)
Length of Visible Light 12h 54m
Length of Day
12h 01m
Waning Gibbous, 64% of the Moon is Illuminated
Sep 25
Waning Gibbous
Sep 26
Last Quarter
Oct 4
New
Oct 11
First Quarter
Oct 18
Full

Hourly Weather History & Observations

Time (EDT) Temp. Windchill Dew Point Humidity Pressure Visibility Wind Dir Wind Speed Gust Speed Precip Events Conditions
12:15 AM 48.2 °F - 48.2 °F 100% 30.02 in 7.0 mi NW 5.8 mph - N/A   Clear
12:35 AM 50.0 °F - 50.0 °F 100% 30.01 in 10.0 mi NW 3.5 mph - N/A   Clear
12:55 AM 49.1 °F - 49.1 °F 100% 30.02 in 7.0 mi Calm Calm - N/A   Clear
1:15 AM 47.5 °F - 47.5 °F 100% 30.02 in 7.0 mi Calm Calm - N/A   Clear
1:35 AM 48.4 °F - 48.4 °F 100% 30.02 in 7.0 mi Calm Calm - N/A   Clear
1:55 AM 48.0 °F - 48.0 °F 100% 30.01 in 3.0 mi Calm Calm - N/A   Clear
2:15 AM 47.3 °F - 47.3 °F 100% 30.01 in 7.0 mi Calm Calm - N/A   Clear
2:35 AM 47.1 °F - 47.1 °F 100% 30.01 in 7.0 mi Calm Calm - N/A   Clear
2:55 AM 48.6 °F - 48.6 °F 100% 30.00 in 2.0 mi Calm Calm - N/A   Clear
3:15 AM 47.5 °F - 47.5 °F 100% 30.00 in 3.0 mi Calm Calm - N/A   Clear
3:35 AM 46.8 °F - 46.8 °F 100% 30.00 in 3.0 mi Calm Calm - N/A   Clear
3:55 AM 46.4 °F - 46.4 °F 100% 30.00 in 5.0 mi Calm Calm - N/A   Clear
4:15 AM 46.8 °F - 46.8 °F 100% 30.00 in 2.5 mi Calm Calm - N/A   Clear
4:35 AM 45.5 °F - 45.5 °F 100% 29.99 in 7.0 mi Calm Calm - N/A   Clear
4:55 AM 45.7 °F - 45.7 °F 100% 29.99 in 4.0 mi Calm Calm - N/A   Clear
5:15 AM 46.9 °F - 46.9 °F 100% 29.99 in 7.0 mi Calm Calm - N/A   Clear
5:35 AM 47.5 °F - 47.5 °F 100% 29.99 in 7.0 mi Calm Calm - N/A   Clear
5:55 AM 45.7 °F - 45.7 °F 100% 29.99 in 5.0 mi Calm Calm - N/A   Clear
6:15 AM 47.3 °F - 47.3 °F 100% 29.99 in 1.8 mi Calm Calm - N/A   Mist
6:35 AM 45.7 °F - 45.7 °F 100% 30.00 in 0.8 mi Calm Calm - N/A   Mist
6:55 AM 45.5 °F - 45.5 °F 100% 29.99 in 0.2 mi Calm Calm - N/A Fog Fog
7:15 AM 45.1 °F - 45.1 °F 100% 29.99 in 0.5 mi Calm Calm - N/A Fog Fog
7:35 AM 44.6 °F 43.1 °F 44.6 °F 100% 30.00 in 3.0 mi WNW 3.5 mph - N/A   Clear
7:55 AM 47.5 °F - 47.5 °F 100% 30.00 in 3.0 mi Calm Calm - N/A   Clear
8:15 AM 50.0 °F - 50.0 °F 100% 30.00 in 7.0 mi Calm Calm - N/A   Clear
8:35 AM 50.7 °F - 50.7 °F 100% 30.01 in 5.0 mi Calm Calm - N/A   Clear
8:55 AM 54.5 °F - 54.5 °F 100% 30.01 in 10.0 mi Calm Calm - N/A   Clear
9:15 AM 55.0 °F - 54.7 °F 99% 30.02 in 10.0 mi Calm Calm - N/A   Clear
9:35 AM 57.7 °F - 57.0 °F 97% 30.03 in 10.0 mi NNW 3.5 mph - N/A   Clear
9:55 AM 61.2 °F - 55.2 °F 81% 30.03 in 10.0 mi Calm Calm - N/A   Clear
10:15 AM 63.0 °F - 54.7 °F 74% 30.03 in 10.0 mi North 3.5 mph - N/A   Clear
10:35 AM 64.8 °F - 54.0 °F 68% 30.03 in 10.0 mi Calm Calm - N/A   Clear
10:55 AM 65.8 °F - 54.3 °F 66% 30.03 in 10.0 mi ENE 5.8 mph - N/A   Clear
11:15 AM 67.8 °F - 55.0 °F 64% 30.02 in 10.0 mi NE 4.6 mph - N/A   Clear
11:35 AM 67.5 °F - 53.4 °F 61% 30.02 in 10.0 mi Calm Calm - N/A   Clear
11:55 AM 68.5 °F - 53.2 °F 58% 30.01 in 10.0 mi Calm Calm - N/A   Clear
12:15 PM 70.0 °F - 53.6 °F 56% 30.01 in 10.0 mi East 3.5 mph - N/A   Clear
12:35 PM 70.7 °F - 53.4 °F 54% 30.00 in 10.0 mi ENE 6.9 mph - N/A   Clear
12:55 PM 72.3 °F - 54.1 °F 53% 29.99 in 10.0 mi Calm Calm - N/A   Clear
1:15 PM 72.9 °F - 51.1 °F 46% 29.98 in 10.0 mi East 4.6 mph - N/A   Clear
1:35 PM 74.7 °F - 52.3 °F 46% 29.97 in 10.0 mi NE 5.8 mph - N/A   Clear
2:15 PM 74.1 °F - 50.0 °F 43% 29.97 in 10.0 mi North 5.8 mph - N/A   Clear
2:55 PM 74.7 °F - 49.3 °F 41% 29.96 in 10.0 mi NE 4.6 mph - N/A   Clear
3:15 PM 74.1 °F - 50.4 °F 43% 29.95 in 10.0 mi West 4.6 mph - N/A   Clear
3:35 PM 74.1 °F - 49.8 °F 42% 29.95 in 10.0 mi Calm Calm - N/A   Clear
3:55 PM 74.8 °F - 52.9 °F 46% 29.95 in 10.0 mi Calm Calm - N/A   Clear
4:15 PM 75.2 °F - 52.9 °F 46% 29.95 in 10.0 mi NNW 5.8 mph - N/A   Clear
4:35 PM 73.9 °F - 51.3 °F 45% 29.94 in 10.0 mi North 3.5 mph - N/A   Clear
4:55 PM 73.8 °F - 50.5 °F 44% 29.94 in 10.0 mi East 3.5 mph - N/A   Clear
5:15 PM 71.4 °F - 56.5 °F 59% 29.94 in 10.0 mi Calm Calm - N/A   Clear
5:35 PM 68.2 °F - 60.6 °F 77% 29.94 in 10.0 mi WNW 3.5 mph - N/A   Clear
5:55 PM 67.3 °F - 60.1 °F 78% 29.94 in 10.0 mi Calm Calm - N/A   Clear
6:15 PM 66.2 °F - 61.9 °F 86% 29.94 in 10.0 mi Calm Calm - N/A   Clear
6:35 PM 65.1 °F - 61.5 °F 88% 29.94 in 10.0 mi Calm Calm - N/A   Clear
6:55 PM 63.7 °F - 62.6 °F 96% 29.94 in 10.0 mi Calm Calm - N/A   Clear
7:15 PM 60.4 °F - 60.4 °F 100% 29.94 in 10.0 mi Calm Calm - N/A   Clear
7:35 PM 60.3 °F - 60.3 °F 100% 29.94 in 10.0 mi Calm Calm - N/A   Clear
7:55 PM 59.9 °F - 59.9 °F 100% 29.94 in 10.0 mi Calm Calm - N/A   Clear
8:15 PM 59.2 °F - 59.2 °F 100% 29.95 in 10.0 mi Calm Calm - N/A   Clear
8:35 PM 59.4 °F - 59.4 °F 100% 29.95 in 10.0 mi Calm Calm - N/A   Clear
8:55 PM 58.5 °F - 58.5 °F 100% 29.95 in 10.0 mi Calm Calm - N/A   Clear
9:15 PM 58.6 °F - 58.6 °F 100% 29.95 in 10.0 mi Calm Calm - N/A   Clear
9:35 PM 58.5 °F - 58.5 °F 100% 29.96 in 10.0 mi Calm Calm - N/A   Clear
9:55 PM 58.1 °F - 58.1 °F 100% 29.96 in 10.0 mi Calm Calm - N/A   Clear
10:15 PM 59.0 °F - 59.0 °F 100% 29.96 in 10.0 mi Calm Calm - N/A   Clear
10:35 PM 58.3 °F - 58.3 °F 100% 29.97 in 10.0 mi Calm Calm - N/A   Clear
10:55 PM 57.9 °F - 57.9 °F 100% 29.97 in 10.0 mi Calm Calm - N/A   Clear
11:15 PM 57.6 °F - 57.6 °F 100% 29.97 in 10.0 mi Calm Calm - N/A   Clear
11:35 PM 57.6 °F - 57.6 °F 100% 29.97 in 10.0 mi Calm Calm - N/A   Clear
11:55 PM 57.4 °F - 57.4 °F 100% 29.98 in 10.0 mi Calm Calm - N/A   Clear